EHI
0 0 0 0 0 0 0 0 0 2 6 13 23 35 46 55 62 62 58 56 57 54 51 52 54 51 45 41 39 36 33 29 24 20 17 16 13 11 8 6 5 3 1 0
0 0 0 0 0 0 0 0 1 4 8 16 29 42 52 60 65 63 57 56 59 59 57 57 56 51 44 40 37 36 34 30 24 20 17 15 13 10 9 7 5 3 1 0
0 0 0 0 0 1 3 4 6 10 17 29 43 53 60 65 65 60 55 55 59 61 60 59 55 48 42 37 35 35 33 28 23 20 18 15 13 11 9 6 4 3 1 0
0 0 0 0 1 4 9 15 19 24 34 46 56 61 64 67 65 61 58 58 59 59 59 56 50 44 40 37 35 34 30 25 21 20 18 15 12 11 7 4 3 2 1 0
0 0 0 0 2 6 15 25 35 42 49 57 63 65 64 66 67 67 65 62 60 59 58 52 46 42 40 38 35 32 27 23 19 18 16 13 9 7 4 1 1 1 0 0
0 0 0 3 7 10 16 29 44 54 58 61 63 64 62 64 69 70 67 62 59 57 54 47 42 41 40 37 33 28 24 20 17 15 13 9 6 3 1 0 0 0 0 0
0 0 1 7 14 14 17 30 46 57 61 60 58 59 60 64 68 68 65 59 54 51 46 40 36 36 35 31 27 23 19 16 14 11 9 6 3 1 0 0 0 0 0 0
0 0 2 10 16 16 20 32 45 54 58 58 56 58 61 63 65 64 61 55 50 46 40 33 30 29 28 24 20 17 16 13 10 8 6 3 1 0 0 0 0 0 0 0
3 4 8 14 19 21 25 32 39 44 48 50 53 54 56 58 59 56 52 47 45 42 36 29 26 24 22 19 16 16 14 11 8 6 4 2 0 0 0 0 0 0 0 0
11 13 17 21 26 29 31 32 35 37 37 38 41 44 45 47 47 45 42 40 40 37 30 25 22 20 17 16 16 15 13 9 5 3 2 0 0 0 0 0 0 0 0 0
17 18 21 24 28 33 35 33 34 35 31 29 29 31 33 33 33 32 32 32 31 29 25 22 19 16 14 14 14 13 9 5 2 1 0 0 0 0 0 0 0 0 0 0
14 15 18 20 23 28 31 31 31 30 27 23 21 21 21 22 20 19 20 21 21 21 20 18 16 13 12 12 11 9 5 1 0 0 0 0 0 0 0 0 0 0 0 0
10 13 15 16 18 22 26 26 25 23 21 18 15 13 12 11 10 9 10 13 14 13 13 14 13 11 11 10 9 7 3 1 0 0 0 0 0 0 0 0 0 0 0 0
11 12 14 14 15 19 21 21 19 17 15 12 9 7 5 4 4 5 6 8 8 8 9 10 9 9 9 8 7 5 3 1 0 0 0 0 0 0 0 0 0 0 0 0
12 12 12 12 12 13 14 14 13 12 10 7 5 2 1 2 3 4 4 4 5 5 6 6 7 7 7 5 4 3 1 0 0 0 0 0 0 0 0 0 0 0 0 0
9 9 8 8 6 6 6 6 5 5 5 3 1 0 0 1 1 1 2 2 3 3 2 4 6 6 5 4 3 2 1 0 0 0 0 0 0 0 0 0 0 0 0 0
6 6 4 3 2 1 1 1 1 1 1 1 0 0 0 0 0 0 1 1 1 1 0 2 4 4 3 3 2 1 0 0 0 0 0 0 0 0 0 0 0 0 0 0
4 4 2 0 0 0 0 0 0 0 0 1 1 0 0 0 0 0 0 0 0 0 0 0 1 1 1 1 1 0 0 0 0 0 0 0 0 0 0 0 0 0 0 0
4 2 1 0 1 1 1 1 1 0 1 2 2 1 0 0 0 0 0 0 0 0 0 0 0 0 0 0 0 0 0 0 0 0 0 0 0 0 0 0 0 0 0 0
3 2 0 1 2 2 2 2 1 0 0 2 2 1 0 0 0 0 0 0 0 0 0 0 0 0 0 0 0 0 0 0 0 0 0 0 0 0 0 0 0 0 0 0
1 1 0 1 2 3 3 2 1 0 0 0 1 0 0 0 0 0 0 0 0 0 0 0 0 0 0 0 0 0 0 0 0 0 0 0 0 0 0 0 0 0 0 0
0 0 0 0 1 2 1 1 0 0 0 0 0 0 0 0 0 0 0 0 0 0 0 0 0 0 0 0 0 0 0 0 0 0 0 0 0 0 0 0 0 0 0 0
0 0 0 0 0 0 0 0 0 0 0 0 0 0 0 0 0 0 0 0 0 0 0 0 0 0 0 0 0 0 0 0 0 0 0 0 0 0 0 0 0 0 0 0
0 0 0 0 0 0 0 0 0 0 0 0 0 0 0 0 0 0 0 0 0 0 0 0 0 0 0 0 0 0 0 0 0 0 0 0 0 0 0 0 0 0 0 0
0 0 0 0 0 0 0 0 0 0 0 0 0 0 0 0 0 0 0 0 0 0 0 0 0 0 0 0 0 0 0 0 0 0 0 0 0 0 0 0 0 0 0 0
0 0 0 0 0 0 0 0 0 0 0 0 0 0 0 0 0 0 0 0 0 0 0 0 0 0 0 0 0 0 0 0 0 0 0 0 0 0 0 0 0 0 0 0
0 0 0 0 0 0 0 0 0 0 0 0 0 0 0 0 0 0 0 0 0 0 0 0 0 0 0 0 0 0 0 0 0 0 0 0 0 0 0 0 0 0 0 0
Wind_Speed
5 4 1 1 4 3 5 8 8 8 8 9 10 11 12 11 11 11 10 10 10 9 8 7 7 7 7 6 6 6 6 5 4 4 4 3 3 3 3 3 3 3 3 3
1 2 2 3 4 4 5 5 6 5 5 6 6 7 9 11 12 12 11 10 9 9 9 8 8 7 7 7 6 6 7 6 5 4 4 3 3 3 4 4 4 4 4 5
0 2 4 3 4 3 3 3 6 7 7 6 8 9 10 11 11 12 11 10 10 9 8 8 8 8 8 7 6 6 6 6 5 5 4 3 4 4 4 4 4 5 5 5
3 4 3 9 4 1 2 3 0 5 6 9 10 8 6 7 10 10 10 10 9 8 7 6 6 7 8 8 7 7 6 6 5 5 5 4 5 5 4 4 4 5 5 5
4 2 4 6 5 2 3 3 4 5 7 8 8 9 6 2 6 8 9 9 8 8 8 7 7 8 9 8 8 7 6 6 6 6 6 6 6 5 4 5 5 5 4 5
5 4 5 6 6 3 6 2 5 4 7 6 6 6 2 1 5 6 7 7 8 8 8 8 7 8 10 8 7 6 6 6 6 6 7 7 6 6 5 5 5 5 6 5
5 3 5 5 7 4 5 5 3 2 4 5 4 5 5 6 7 7 8 8 8 9 8 7 7 9 9 8 6 6 6 7 7 7 7 7 6 6 6 6 6 6 6 5
5 3 7 5 4 3 5 3 2 4 5 7 7 7 7 8 8 9 9 9 9 9 8 6 7 9 9 7 6 7 7 7 7 6 6 6 6 6 6 6 6 5 5 5
6 6 5 1 3 3 4 5 4 5 6 9 9 7 7 8 8 8 9 8 7 9 8 6 6 7 9 7 7 8 8 8 6 6 6 5 6 6 5 5 5 4 4 4
3 1 2 4 5 5 5 6 6 7 8 9 9 7 8 8 7 7 7 7 7 8 8 6 5 6 7 7 8 9 9 7 7 7 6 6 5 4 4 4 4 4 3 3
2 2 4 4 4 5 7 8 9 8 7 8 9 8 7 6 7 7 6 5 6 7 7 7 6 6 6 7 8 9 8 7 7 6 6 6 6 5 4 3 3 4 3 3
4 4 4 2 1 4 7 7 8 10 8 6 7 7 7 6 5 6 6 6 6 6 6 6 6 7 6 7 8 10 8 7 5 5 5 5 6 6 9 6 7 7 6 5
3 2 4 3 3 5 6 6 5 8 9 8 6 6 6 6 5 6 6 6 6 6 6 6 6 6 5 6 7 8 8 7 5 5 5 5 5 6 5 5 8 8 7 7
3 4 4 2 3 4 6 6 6 7 7 8 7 6 6 6 6 6 6 6 6 6 6 6 6 5 4 6 7 7 7 8 7 5 5 5 4 4 4 5 4 3 4 5
1 2 2 2 3 5 5 6 7 6 7 6 6 6 6 6 6 5 5 6 7 6 6 6 6 5 4 6 7 7 7 6 5 5 5 5 5 4 4 4 4 3 2 2
2 3 4 3 3 4 5 6 5 4 6 6 6 6 5 6 6 5 5 6 7 6 5 5 5 4 5 6 7 6 5 8 8 6 5 5 5 5 4 4 4 3 2 1
4 3 2 1 1 3 4 5 5 5 5 6 7 7 7 7 6 5 4 4 5 5 5 5 5 4 5 6 6 5 5 6 9 6 5 5 5 5 5 4 4 3 2 3
5 4 4 4 4 4 3 4 5 6 6 6 7 7 7 7 7 5 5 5 5 5 4 4 5 5 5 5 5 4 5 5 5 5 5 5 5 4 4 4 4 4 2 2
4 4 4 3 3 4 4 4 4 5 6 7 8 7 6 6 6 6 6 6 6 5 3 4 6 5 4 5 6 4 5 5 5 4 4 6 5 4 4 4 4 4 3 3
3 3 3 2 2 3 3 4 5 5 5 7 7 7 6 5 6 6 6 4 3 4 5 5 5 4 4 4 5 4 5 5 5 4 4 4 4 4 4 4 4 4 4 4
3 3 3 2 2 2 3 5 6 6 5 6 7 8 7 6 6 6 6 4 2 3 5 6 4 3 3 3 4 4 5 5 5 5 5 5 4 4 5 4 4 4 4 4
2 2 2 2 3 3 2 4 5 6 5 5 6 7 7 7 6 4 4 3 4 5 4 3 3 4 4 4 3 4 4 5 4 4 4 5 5 5 4 5 4 4 4 4
2 2 2 2 3 3 3 3 5 6 6 6 6 7 7 6 5 5 3 2 4 5 3 2 4 6 6 3 3 3 4 4 4 4 4 4 4 4 4 4 4 4 4 3
2 3 3 2 3 4 3 3 3 4 5 5 5 6 6 5 3 2 3 5 6 6 3 3 6 6 5 3 3 3 3 3 4 4 4 4 4 4 4 4 3 3 3 4
2 2 3 3 3 3 3 4 4 5 5 4 5 5 4 3 4 4 4 5 6 5 3 3 5 5 3 3 3 3 3 3 4 4 4 4 4 4 4 4 4 4 3 4
2 2 2 2 2 2 3 4 4 3 4 4 4 4 3 3 4 4 4 4 5 5 3 2 3 3 3 3 3 3 3 4 4 4 4 4 4 4 4 4 4 3 3 3
2 2 2 2 2 2 3 4 4 4 4 5 5 4 3 3 3 4 4 4 3 3 2 2 2 2 3 3 3 3 3 3 3 4 4 3 3 3 3 4 3 3 3 3
Wind_Direction
191 200 161 236 256 228 180 183 183 212 197 205 189 175 165 156 151 146 154 156 156 155 155 150 145 147 148 148 150 146 141 136 137 136 130 121 113 105 94 81 77 69 62 52
53 31 35 337 301 272 234 201 189 171 214 214 176 145 147 156 154 155 161 166 160 155 153 154 154 153 145 147 151 145 143 141 136 130 122 118 114 105 95 82 74 68 61 59
12 359 43 306 271 259 255 237 177 183 204 158 132 140 156 161 159 163 164 163 161 162 161 162 160 154 148 148 146 144 145 141 137 139 131 127 117 100 91 83 79 73 62 63
104 71 208 244 262 192 105 358 114 144 149 147 147 147 139 151 155 158 162 161 161 159 152 148 143 140 139 138 139 140 138 133 135 133 125 116 106 98 91 87 83 78 67 64
111 141 278 299 324 355 107 10 359 116 123 128 119 84 49 63 144 154 157 154 153 150 143 135 134 138 132 132 133 133 132 133 135 132 125 116 106 99 93 90 82 74 67 64
120 144 212 256 300 310 98 36 329 109 126 133 108 106 186 138 113 114 120 125 128 128 123 124 128 127 124 125 124 127 129 126 124 122 119 117 113 105 96 94 91 85 70 59
139 174 248 267 305 26 109 214 283 86 118 115 114 152 151 123 105 104 110 115 118 119 122 128 126 122 121 122 124 123 115 108 106 111 116 118 115 111 110 104 95 86 80 60
142 166 246 295 22 106 189 193 104 85 89 93 96 100 103 104 105 107 107 108 113 114 112 116 123 126 124 126 125 115 109 105 105 108 110 112 113 109 106 106 100 93 85 67
171 197 232 307 123 149 140 114 99 98 103 106 104 108 107 105 106 106 106 108 112 115 113 109 112 123 128 130 125 118 111 108 104 95 87 95 106 111 109 106 105 101 96 86
95 130 94 73 74 73 84 98 102 109 110 108 111 113 110 110 109 105 102 111 115 118 119 117 114 118 126 128 126 122 118 115 109 102 93 81 81 92 104 107 109 108 105 103
103 145 73 49 66 89 84 84 89 89 95 107 115 117 118 117 116 114 112 107 111 119 123 125 123 122 127 129 127 123 120 116 110 106 106 92 77 66 84 85 130 137 137 133
193 207 150 178 169 110 98 99 112 109 97 95 112 119 117 120 120 119 118 114 113 114 120 127 129 129 135 137 135 132 128 127 124 119 113 111 108 85 57 73 86 99 112 121
182 170 134 136 94 92 94 97 108 111 115 109 101 110 113 116 117 117 117 117 121 125 125 126 125 128 135 136 136 136 137 136 132 130 129 127 124 121 108 66 64 73 90 103
97 91 69 68 96 99 98 90 89 98 101 108 110 108 106 106 110 118 127 129 125 125 125 125 125 128 134 134 133 135 136 140 141 143 140 138 134 128 127 127 110 60 50 84
35 94 140 125 97 102 106 98 91 100 106 105 110 115 117 120 126 130 129 129 126 127 130 134 136 140 136 132 133 134 135 141 143 141 140 138 135 132 128 125 124 120 92 52
91 72 70 78 108 111 119 117 120 132 132 127 126 130 130 128 128 127 126 131 136 141 145 143 147 147 139 136 134 131 137 145 143 141 141 141 141 141 142 140 137 138 145 155
136 136 137 172 144 123 139 148 153 158 146 141 144 139 132 125 121 125 127 125 130 133 136 139 140 133 133 137 137 138 140 145 142 139 145 150 150 153 155 153 154 160 177 184
164 170 184 187 175 155 155 163 166 160 153 152 143 136 139 141 146 148 141 126 118 113 120 135 136 132 133 136 139 141 140 141 145 146 148 151 153 155 155 158 164 167 171 167
149 159 181 186 178 159 161 164 161 153 148 147 145 145 148 148 148 149 143 137 138 142 155 146 140 139 142 145 141 141 143 144 143 145 147 153 154 155 159 166 171 174 170 164
111 135 144 147 148 150 155 153 146 141 143 144 141 140 141 143 143 141 137 142 163 167 159 149 145 145 146 150 145 148 150 150 150 152 151 155 162 166 169 172 171 172 173 172
105 100 89 91 107 125 141 143 141 144 147 148 150 153 152 147 144 142 137 139 162 143 141 143 143 144 142 143 145 147 151 154 158 163 162 162 163 165 165 167 169 172 172 172
93 105 99 103 104 93 110 128 136 140 142 142 144 143 141 140 141 136 139 154 157 145 138 140 144 149 149 141 143 149 156 160 163 164 165 164 164 166 166 165 166 169 169 171
79 84 91 110 122 116 99 109 128 136 141 144 148 149 147 148 150 147 152 165 146 142 135 148 156 152 151 147 141 147 156 161 163 163 164 164 166 167 166 166 167 165 166 169
71 75 91 103 111 111 111 117 121 126 130 131 136 139 140 136 128 138 146 145 142 136 135 152 154 151 147 141 139 146 151 154 156 155 154 152 151 152 154 155 155 161 166 166
90 94 102 109 118 130 134 124 115 115 117 118 118 119 127 139 146 148 140 141 143 137 140 156 155 147 134 126 124 129 138 145 147 144 143 146 148 148 149 153 162 168 172 178
101 118 124 126 130 129 127 121 118 118 120 120 116 116 117 118 125 130 131 138 143 143 146 148 144 137 121 119 121 129 141 145 140 138 143 146 148 150 155 166 174 176 180 186
82 91 98 89 81 99 114 119 123 124 127 129 125 120 123 125 127 128 129 133 138 141 138 131 126 123 118 120 119 121 122 127 131 136 141 146 148 152 161 166 170 174 176 181